[Date Prev][Date Next][Thread Prev][Thread Next] - [Date Index][Thread Index][Author Index]
2 Line ISS Keps 10-11
- Subject: [sarex] 2 Line ISS Keps 10-11
- From: "Dave Larsen PhD" <doc@xxxxxxxxxxx>
- Date: Mon, 11 Oct 2004 02:47:35 -0700
ISS
1 25544U 98067A 04285.26256944 .00016520 00000-0 14508-3 0 8834
2 25544 51.6357 93.4354 0009346 211.6107 153.5490 15.68923082336550
----
Via the sarex mailing list at AMSAT.ORG courtesy of AMSAT-NA.
To unsubscribe, send "unsubscribe sarex" to Majordomo@amsat.org
AMSAT Home